Starlink 31423

operational
NORAD ID: 59242 Int'l Des: 2024-049 Owner: SPXS Country: US Constellation: starlink
LEOCIRCULAR

Über Starlink 31423

Beschreibung wird geladen...

Live-Position

3D-Globus wird geladen...

Nächste Überflüge

Höhenverlauf

Altitude vs Time

uPlot chart will show altitude changes over time

Zweizeiliger Elementsatz

1 59242U 24049M 25302.98555859 -.00000326 00000-0 -23285-5 0 9995
2 59242 43.0009 161.9364 0000928 273.7518 86.3228 15.27578259 92418
Epoch: 29. Okt. 2025 • Age: 21 hours

Aktueller Status

Höhe 484.1 km
Geschwindigkeit 7.63 km/s
Subsatellitenpunkt 30.47°N, 147.39°W
Startdatum 16. März 2024
Alter 1.6 years
Typ internet

Technische Details

Klassifizierung Payload
Masse 730.00 kg
Trockenmasse 700.00 kg
Gesamtmasse 730.00 kg
Länge 0.30 m
Durchmesser 4.10 m
Spannweite 29.00 m
Form Box + pan
Hersteller SPXS
Bus-Typ Starlink V2M
Phasenstatus In Orbit
Besitzer/Staat SPXS/US

Große Konstellationen

Loading constellations...